Location: Caltech
(34.1382°N, 118.1253°W)
Time: 11:44:29
(UTC-07:00)

BREEZE M DEB (TANK) - Visible Passes

Search period start: 26 March 2017 00:00
Search period end: 05 April 2017 00:00
Orbit: 317 x 13710 km, 49.6° (Epoch: 23 March)

Date Brightness Start Highest point End Pass type
(mag) Time Alt. Az. Time Alt. Az. Time Alt. Az.
26 Mar 8.6 19:46:52 10° NW 20:12:26 76° SW 22:04:40 10° SSE visible
27 Mar 9.8 00:52:40 10° W 00:59:31 10° W 01:07:06 10° WSW visible
27 Mar 9.3 21:35:52 10° WNW 22:09:40 46° WSW 23:48:34 10° S visible
28 Mar 8.3 18:52:07 10° NW 19:13:27 87° SW 21:03:28 10° SSE visible
28 Mar 9.7 23:33:49 10° WNW 00:03:20 19° WSW 00:56:40 10° SW visible
29 Mar 9.0 20:39:57 10° WNW 21:10:13 56° WSW 22:55:28 10° S visible
30 Mar 8.0 17:57:31 10° NW 18:15:10 81° NE 19:58:29 10° SE visible
30 Mar 9.6 22:32:33 10° WNW 23:05:52 28° WSW 00:21:15 10° SSW visible
31 Mar 8.8 19:44:34 10° NW 20:10:40 67° SW 21:58:58 10° S visible
01 Apr 9.5 21:34:29 10° WNW 22:07:20 38° WSW 23:36:37 10° SSW visible
02 Apr 8.5 18:49:32 10° NW 19:11:30 78° SW 20:59:15 10° SSE visible
02 Apr 9.9 23:43:33 10° W 23:59:50 12° WSW 00:21:37 10° WSW visible
03 Apr 9.2 20:37:51 10° WNW 21:08:05 47° WSW 22:46:10 10° S visible
04 Apr 8.2 17:54:44 10° NW 18:12:59 90° SW 19:56:02 10° SSE visible
04 Apr 9.7 22:33:46 10° WNW 23:02:47 21° WSW 23:59:42 10° SW visible
